TGM annuale;;;;;;;;;;;;;;;TGM annuale;;;;;;;;;;;;;;;TGM annuale;;;;;;;;;;;;;
Tratta nr.11 SR65, Km 26.600, Barberino di Mugello(FI) (flussi ascendente/discendente);;;;;;;;;;;;;;;Tratta nr.11 SR65, Km 26.600, Barberino di Mugello(FI) (flusso ascendente);;;;;;;;;;;;;;;Tratta nr.11 SR65, Km 26.600, Barberino di Mugello(FI) (flusso discendente);;;;;;;;;;;;;
Anno;01 Motocicli;02 Auto e monovolume;03 Auto e monovolume con rimorchio;04 Furgoncini e camioncini;05 Camion;06 Autotreni;07 Autoarticolati;08 Autobus;09 Veicoli non classificati;Totale;Feriali;Festivi;Prefestivi;;Anno;01 Motocicli;02 Auto e monovolume;03 Auto e monovolume con rimorchio;04 Furgoncini e camioncini;05 Camion;06 Autotreni;07 Autoarticolati;08 Autobus;09 Veicoli non classificati;Totale;Feriali;Festivi;Prefestivi;;Anno;01 Motocicli;02 Auto e monovolume;03 Auto e monovolume con rimorchio;04 Furgoncini e camioncini;05 Camion;06 Autotreni;07 Autoarticolati;08 Autobus;09 Veicoli non classificati;Totale;Feriali;Festivi;Prefestivi
2017;226;12142;18;1312;372;81;112;26;0;14288;14638;12952;14200;;2017;85;5977;9;675;188;41;56;15;0;7045;7220;6431;6935;;2017;140;6165;8;637;184;40;56;12;0;7243;7417;6521;7265
;;;;;;;;;;;;;;;;;;;;;;;;;;;;;;;;;;;;;;;;;;;
Tabella flussi 2017;;;;;;;;;;;;;;;Tabella flussi 2017;;;;;;;;;;;;;;;Tabella flussi 2017;;;;;;;;;;;;;
Tratta nr.11 SR65, Km 26.600, Barberino di Mugello(FI) (flussi ascendente/discendente);;;;;;;;;;;;;;;Tratta nr.11 SR65, Km 26.600, Barberino di Mugello(FI) (flusso ascendente);;;;;;;;;;;;;;;Tratta nr.11 SR65, Km 26.600, Barberino di Mugello(FI) (flusso discendente);;;;;;;;;;;;;
;Traffico Totale;;;;;;;;;;Traffico Med.Orario 06:00 - 20:00;Traffico Ora di punta;;;;Traffico Totale;;;;;;;;;;Traffico Med.Orario 06:00 - 20:00;Traffico Ora di punta;;;;Traffico Totale;;;;;;;;;;Traffico Med.Orario 06:00 - 20:00;Traffico Ora di punta;
Giorno;01 Motocicli;02 Auto e monovolume;03 Auto e monovolume con rimorchio;04 Furgoncini e camioncini;05 Camion;06 Autotreni;07 Autoarticolati;08 Autobus;09 Veicoli non classificati;Totale;Totale;Ora di punta;Flusso totale ora di punta;;Giorno;01 Motocicli;02 Auto e monovolume;03 Auto e monovolume con rimorchio;04 Furgoncini e camioncini;05 Camion;06 Autotreni;07 Autoarticolati;08 Autobus;09 Veicoli non classificati;Totale;Totale;Ora di punta;Flusso totale ora di punta;;Giorno;01 Motocicli;02 Auto e monovolume;03 Auto e monovolume con rimorchio;04 Furgoncini e camioncini;05 Camion;06 Autotreni;07 Autoarticolati;08 Autobus;09 Veicoli non classificati;Totale;Totale;Ora di punta;Flusso totale ora di punta
01/01/2017;152;7491;0;316;14;9;1;9;0;7992;410;16;817;;01/01/2017;35;3643;0;169;9;6;0;4;0;3866;202;16;397;;01/01/2017;117;3848;0;147;5;3;1;5;0;4126;208;16;420
02/01/2017;98;10077;4;909;245;36;52;26;0;11447;715;17;1004;;02/01/2017;20;5236;4;485;122;21;27;14;0;5929;379;17;491;;02/01/2017;78;4841;0;424;123;15;25;12;0;5518;336;18;519
03/01/2017;101;10407;5;1211;272;39;83;22;0;12140;763;17;1071;;03/01/2017;27;5150;2;635;136;22;40;10;0;6022;384;17;506;;03/01/2017;74;5257;3;576;136;17;43;12;0;6118;379;17;565
04/01/2017;107;10622;3;1116;293;65;73;21;0;12300;767;17;1056;;04/01/2017;27;5223;2;578;147;31;35;11;0;6054;381;17;468;;04/01/2017;80;5399;1;538;146;34;38;10;0;6246;386;17;588
05/01/2017;81;12196;9;1229;290;67;82;27;0;13981;869;17;1152;;05/01/2017;18;6244;4;673;149;40;39;11;0;7178;453;17;539;;05/01/2017;63;5952;5;556;141;27;43;16;0;6803;415;18;621
06/01/2017;120;9432;4;390;57;12;4;1;0;10020;578;16;926;;06/01/2017;22;4634;3;210;29;6;2;0;0;4906;297;16;482;;06/01/2017;98;4798;1;180;28;6;2;1;0;5114;282;17;452
07/01/2017;123;11161;5;678;120;21;22;9;0;12139;728;16;1035;;07/01/2017;27;5518;4;348;65;9;13;4;0;5988;373;16;509;;07/01/2017;96;5643;1;330;55;12;9;5;0;6151;355;18;541
08/01/2017;134;9414;4;430;21;11;2;3;0;10019;593;16;983;;08/01/2017;44;4610;2;224;12;5;0;0;0;4897;304;15;527;;08/01/2017;90;4804;2;206;9;6;2;3;0;5122;288;17;516
09/01/2017;101;11082;7;1140;370;84;133;28;0;12945;825;17;1141;;09/01/2017;24;5434;1;577;192;40;67;12;0;6347;408;7;564;;09/01/2017;77;5648;6;563;178;44;66;16;0;6598;417;17;630
10/01/2017;101;11364;2;1446;419;94;136;27;0;13589;865;17;1165;;10/01/2017;18;5583;2;740;214;38;68;16;0;6679;430;7;562;;10/01/2017;83;5781;0;706;205;56;68;11;0;6910;435;17;625
11/01/2017;98;11638;7;1306;381;101;151;32;0;13714;869;17;1236;;11/01/2017;21;5749;3;663;196;55;79;17;0;6783;433;8;576;;11/01/2017;77;5889;4;643;185;46;72;15;0;6931;436;17;737
12/01/2017;112;11445;5;1363;425;97;145;22;0;13614;858;17;1129;;12/01/2017;24;5628;1;709;213;39;69;11;0;6694;428;7;579;;12/01/2017;88;5817;4;654;212;58;76;11;0;6920;431;17;629
13/01/2017;77;11175;4;1295;452;95;148;22;0;13268;829;17;1119;;13/01/2017;30;5516;1;662;229;42;81;9;0;6570;414;7;547;;13/01/2017;47;5659;3;633;223;53;67;13;0;6698;415;17;608
14/01/2017;61;10407;3;718;152;24;33;16;0;11414;682;16;986;;14/01/2017;18;5085;1;387;75;16;17;9;0;5608;345;16;494;;14/01/2017;43;5322;2;331;77;8;16;7;0;5806;336;17;503
15/01/2017;70;8581;1;332;33;7;2;2;0;9028;535;16;914;;15/01/2017;14;4197;1;176;18;2;1;1;0;4410;273;15;498;;15/01/2017;56;4384;0;156;15;5;1;1;0;4618;262;17;508
16/01/2017;80;10052;3;1218;444;64;105;25;0;11991;777;8;1073;;16/01/2017;23;4917;0;632;228;32;51;14;0;5897;384;8;588;;16/01/2017;57;5135;3;586;216;32;54;11;0;6094;393;17;608
17/01/2017;74;7983;2;1023;369;58;117;28;0;9654;613;8;872;;17/01/2017;20;3934;0;541;195;30;59;16;0;4795;308;8;482;;17/01/2017;54;4049;2;482;174;28;58;12;0;4859;305;17;431
18/01/2017;108;10373;4;1181;369;66;133;30;0;12264;778;17;1033;;18/01/2017;30;5139;1;620;176;35;65;16;0;6082;390;8;528;;18/01/2017;78;5234;3;561;193;31;68;14;0;6182;388;18;590
19/01/2017;121;11234;3;1417;428;80;140;27;0;13450;849;17;1122;;19/01/2017;32;5506;2;745;216;39;66;13;0;6619;421;8;577;;19/01/2017;89;5728;1;672;212;41;74;14;0;6831;428;17;632
20/01/2017;93;11746;2;1335;485;104;128;20;0;13913;864;17;1166;;20/01/2017;18;5821;1;697;239;48;69;11;0;6904;434;7;555;;20/01/2017;75;5925;1;638;246;56;59;9;0;7009;429;17;637
21/01/2017;118;11403;7;733;137;23;33;16;0;12470;748;16;1045;;21/01/2017;21;5616;5;383;71;12;19;6;0;6133;377;16;520;;21/01/2017;97;5787;2;350;66;11;14;10;0;6337;372;17;528
22/01/2017;146;10807;7;411;29;24;4;8;0;11436;682;17;1058;;22/01/2017;38;5316;5;219;14;11;4;4;0;5611;351;15;596;;22/01/2017;108;5491;2;192;15;13;0;4;0;5825;331;17;562
23/01/2017;110;10899;4;1252;474;72;145;31;0;12987;819;17;1080;;23/01/2017;29;5386;3;656;239;34;75;17;0;6439;409;7;587;;23/01/2017;81;5513;1;596;235;38;70;14;0;6548;409;17;606
24/01/2017;126;11318;3;1508;485;106;142;33;0;13721;873;17;1162;;24/01/2017;29;5566;3;765;246;54;79;15;0;6757;433;7;562;;24/01/2017;97;5752;0;743;239;52;63;18;0;6964;439;17;620
25/01/2017;119;11963;4;1375;449;99;152;32;0;14193;896;17;1225;;25/01/2017;25;5974;4;728;227;53;73;19;0;7103;453;8;584;;25/01/2017;94;5989;0;647;222;46;79;13;0;7090;443;17;643
26/01/2017;106;11604;7;1432;481;93;148;26;0;13897;874;17;1124;;26/01/2017;24;5743;4;747;246;46;76;14;0;6900;438;7;566;;26/01/2017;82;5861;3;685;235;47;72;12;0;6997;435;18;634
27/01/2017;108;12203;7;1397;449;103;143;28;0;14438;891;17;1152;;27/01/2017;34;5997;3;724;230;54;71;14;0;7127;444;8;574;;27/01/2017;74;6206;4;673;219;49;72;14;0;7311;447;17;661
28/01/2017;160;11480;13;831;101;35;39;18;0;12677;747;15;955;;28/01/2017;39;5696;8;447;48;18;19;11;0;6286;377;15;481;;28/01/2017;121;5784;5;384;53;17;20;7;0;6391;369;19;506
29/01/2017;143;10544;9;464;37;22;5;8;0;11232;672;17;1111;;29/01/2017;35;5127;4;242;16;9;5;4;0;5442;338;15;525;;29/01/2017;108;5417;5;222;21;13;0;4;0;5790;334;17;602
30/01/2017;114;10935;8;1236;499;111;118;32;0;13053;830;8;1117;;30/01/2017;30;5367;7;631;256;53;64;14;0;6422;413;7;607;;30/01/2017;84;5568;1;605;243;58;54;18;0;6631;417;17;596
31/01/2017;93;11113;9;1453;503;93;122;28;0;13414;850;17;1089;;31/01/2017;27;5446;6;773;246;50;65;14;0;6627;422;7;576;;31/01/2017;66;5667;3;680;257;43;57;14;0;6787;427;17;615
01/02/2017;125;11337;6;1415;415;112;130;31;0;13571;855;17;1181;;01/02/2017;20;5542;3;726;212;57;71;16;0;6647;421;7;584;;01/02/2017;105;5795;3;689;203;55;59;15;0;6924;433;17;653
02/02/2017;116;11548;5;1353;457;81;143;35;0;13738;865;18;1122;;02/02/2017;40;5658;4;705;231;50;68;16;0;6772;431;7;588;;02/02/2017;76;5890;1;648;226;31;75;19;0;6966;435;17;631
03/02/2017;122;12071;5;1356;503;86;149;36;0;14328;890;17;1193;;03/02/2017;36;5974;3;697;256;40;77;17;0;7100;441;8;553;;03/02/2017;86;6097;2;659;247;46;72;19;0;7228;448;17;649
04/02/2017;135;10852;5;676;133;31;30;10;0;11872;693;16;911;;04/02/2017;28;5369;2;363;62;17;17;5;0;5863;351;16;447;;04/02/2017;107;5483;3;313;71;14;13;5;0;6009;342;16;464
05/02/2017;132;9010;3;302;28;6;2;5;0;9488;545;16;852;;05/02/2017;27;4404;2;160;16;3;1;4;0;4617;280;15;472;;05/02/2017;105;4606;1;142;12;3;1;1;0;4871;265;18;473
06/02/2017;90;11190;2;1202;478;82;118;31;0;13193;839;17;1158;;06/02/2017;31;5552;1;618;245;38;55;16;0;6556;421;7;627;;06/02/2017;59;5638;1;584;233;44;63;15;0;6637;418;17;643
07/02/2017;135;11399;9;1456;481;88;143;29;0;13740;872;17;1139;;07/02/2017;36;5605;3;737;237;45;70;16;0;6749;433;7;601;;07/02/2017;99;5794;6;719;244;43;73;13;0;6991;438;17;632
08/02/2017;160;11496;7;1376;422;89;141;27;0;13718;862;17;1145;;08/02/2017;35;5679;5;718;223;43;68;17;0;6788;431;8;594;;08/02/2017;125;5817;2;658;199;46;73;10;0;6930;430;17;648
09/02/2017;111;11332;11;1387;471;99;125;27;0;13563;850;17;1149;;09/02/2017;27;5582;5;717;234;51;59;14;0;6689;423;7;603;;09/02/2017;84;5750;6;670;237;48;66;13;0;6874;426;17;640
10/02/2017;116;11877;5;1443;491;103;151;22;0;14208;874;17;1136;;10/02/2017;33;5891;2;739;248;49;79;14;0;7055;437;7;586;;10/02/2017;83;5986;3;704;243;54;72;8;0;7153;437;17;638
11/02/2017;;;;;;;;;;;;;;;11/02/2017;;;;;;;;;;;;;;;11/02/2017;;;;;;;;;;;;;
12/02/2017;;;;;;;;;;;;;;;12/02/2017;;;;;;;;;;;;;;;12/02/2017;;;;;;;;;;;;;
13/02/2017;129;11088;4;1352;574;79;144;28;0;13398;844;17;1106;;13/02/2017;41;5444;2;677;290;46;67;19;0;6586;419;7;615;;13/02/2017;88;5644;2;675;284;33;77;9;0;6812;425;17;651
14/02/2017;142;11718;3;1552;542;117;158;25;0;14257;894;17;1157;;14/02/2017;42;5768;2;803;269;61;78;15;0;7038;444;7;603;;14/02/2017;100;5950;1;749;273;56;80;10;0;7219;449;17;618
15/02/2017;148;11748;6;1357;476;105;140;37;0;14017;874;17;1235;;15/02/2017;36;5808;5;700;238;54;73;19;0;6933;438;7;586;;15/02/2017;112;5940;1;657;238;51;67;18;0;7084;436;17;688
16/02/2017;159;11587;6;1450;522;107;145;31;0;14007;881;17;1153;;16/02/2017;42;5710;5;736;265;49;72;16;0;6895;437;7;608;;16/02/2017;117;5877;1;714;257;58;73;15;0;7112;445;17;657
17/02/2017;126;12145;5;1398;466;94;152;29;0;14415;889;17;1201;;17/02/2017;28;5917;4;703;238;51;79;13;0;7033;437;7;550;;17/02/2017;98;6228;1;695;228;43;73;16;0;7382;451;17;664
18/02/2017;222;11859;11;810;150;34;46;9;0;13141;777;16;1050;;18/02/2017;83;5891;6;434;64;17;23;6;0;6524;396;17;551;;18/02/2017;139;5968;5;376;86;17;23;3;0;6617;381;16;550
19/02/2017;311;11542;13;486;36;25;2;6;0;12421;750;17;1210;;19/02/2017;116;5739;6;252;22;14;1;4;0;6154;386;17;666;;19/02/2017;195;5803;7;234;14;11;1;2;0;6267;365;18;604
20/02/2017;134;11079;8;1242;550;93;139;40;0;13285;843;17;1133;;20/02/2017;28;5456;3;632;278;51;68;23;0;6539;419;7;609;;20/02/2017;106;5623;5;610;272;42;71;17;0;6746;423;17;655
21/02/2017;119;11557;11;1518;510;109;155;24;0;14003;890;17;1157;;21/02/2017;34;5700;6;784;263;54;86;12;0;6939;446;7;573;;21/02/2017;85;5857;5;734;247;55;69;12;0;7064;444;18;619
22/02/2017;141;11609;6;1303;427;104;146;23;0;13759;861;17;1186;;22/02/2017;29;5729;4;663;219;50;75;17;0;6786;430;7;611;;22/02/2017;112;5880;2;640;208;54;71;6;0;6973;431;17;646
23/02/2017;138;11871;4;1547;538;98;141;33;0;14370;900;8;1128;;23/02/2017;27;5823;3;789;282;45;71;16;0;7056;447;8;597;;23/02/2017;111;6048;1;758;256;53;70;17;0;7314;453;17;619
24/02/2017;126;12209;3;1332;478;90;131;32;0;14401;878;17;1105;;24/02/2017;33;6064;1;698;247;44;68;15;0;7170;441;7;581;;24/02/2017;93;6145;2;634;231;46;63;17;0;7231;437;17;584
25/02/2017;189;12359;8;753;152;33;40;14;0;13548;776;19;1105;;25/02/2017;40;5576;4;359;66;15;16;6;0;6082;378;15;505;;25/02/2017;149;6783;4;394;86;18;24;8;0;7466;398;19;782
26/02/2017;292;11657;11;466;30;14;3;6;0;12479;743;17;1164;;26/02/2017;102;5491;6;229;16;6;2;4;0;5856;359;15;575;;26/02/2017;190;6166;5;237;14;8;1;2;0;6623;384;17;602
27/02/2017;139;11524;2;1336;529;75;133;26;0;13764;875;18;1102;;27/02/2017;36;5730;1;687;273;40;67;14;0;6848;438;7;640;;27/02/2017;103;5794;1;649;256;35;66;12;0;6916;437;18;626
28/02/2017;115;11637;7;1549;486;93;145;23;0;14055;892;17;1179;;28/02/2017;26;5712;3;794;245;49;72;11;0;6912;442;7;608;;28/02/2017;89;5925;4;755;241;44;73;12;0;7143;450;17;636
01/03/2017;167;12031;6;1362;434;92;141;34;0;14267;896;17;1240;;01/03/2017;42;5952;2;690;225;46;69;15;0;7041;445;7;599;;01/03/2017;125;6079;4;672;209;46;72;19;0;7226;451;17;677
02/03/2017;123;11796;10;1469;507;91;124;28;0;14148;878;8;1129;;02/03/2017;26;5824;8;744;249;43;61;17;0;6972;439;7;607;;02/03/2017;97;5972;2;725;258;48;63;11;0;7176;439;18;607
03/03/2017;170;12455;7;1349;485;98;139;24;0;14727;905;17;1223;;03/03/2017;43;6081;5;698;241;49;77;12;0;7206;449;7;604;;03/03/2017;127;6374;2;651;244;49;62;12;0;7521;456;17;663
04/03/2017;118;11606;11;720;121;30;37;18;0;12661;754;16;962;;04/03/2017;31;5771;5;380;48;13;19;13;0;6280;380;17;474;;04/03/2017;87;5835;6;340;73;17;18;5;0;6381;375;16;504
05/03/2017;159;10596;7;464;27;13;10;10;0;11286;664;16;1123;;05/03/2017;30;5231;3;249;14;7;4;4;0;5542;341;16;574;;05/03/2017;129;5365;4;215;13;6;6;6;0;5744;322;18;611
06/03/2017;107;11008;4;1311;504;84;126;26;0;13170;836;8;1117;;06/03/2017;29;5435;1;664;253;45;67;13;0;6507;416;8;595;;06/03/2017;78;5573;3;647;251;39;59;13;0;6663;420;17;594
07/03/2017;119;11722;2;1474;446;86;143;35;0;14027;887;17;1197;;07/03/2017;27;5744;1;763;229;52;71;17;0;6904;441;17;573;;07/03/2017;92;5978;1;711;217;34;72;18;0;7123;445;18;625
08/03/2017;174;12351;9;1368;461;102;172;30;0;14667;903;18;1158;;08/03/2017;49;6077;3;697;231;46;82;17;0;7202;449;7;633;;08/03/2017;125;6274;6;671;230;56;90;13;0;7465;454;18;653
09/03/2017;157;12086;4;1427;527;125;138;28;0;14492;899;17;1221;;09/03/2017;33;5940;2;718;274;59;69;15;0;7110;447;7;633;;09/03/2017;124;6146;2;709;253;66;69;13;0;7382;452;17;656
10/03/2017;153;12215;9;1491;532;107;168;34;0;14709;910;17;1157;;10/03/2017;57;5981;3;753;275;50;93;19;0;7231;454;7;610;;10/03/2017;96;6234;6;738;257;57;75;15;0;7478;456;17;635
11/03/2017;319;12337;12;969;156;40;37;17;0;13887;826;17;1153;;11/03/2017;101;6091;7;512;79;15;18;7;0;6830;413;17;585;;11/03/2017;218;6246;5;457;77;25;19;10;0;7057;413;17;568
12/03/2017;325;12109;16;587;38;34;3;9;0;13121;781;17;1399;;12/03/2017;123;6051;10;343;25;17;2;5;0;6576;402;17;709;;12/03/2017;202;6058;6;244;13;17;1;4;0;6545;379;17;690
13/03/2017;159;11528;4;1404;548;91;146;29;0;13909;881;17;1181;;13/03/2017;42;5646;2;712;275;49;69;17;0;6812;434;7;654;;13/03/2017;117;5882;2;692;273;42;77;12;0;7097;446;17;656
14/03/2017;175;11924;13;1567;541;105;151;38;0;14514;918;7;1146;;14/03/2017;49;5825;6;805;273;51;73;19;0;7101;454;7;621;;14/03/2017;126;6099;7;762;268;54;78;19;0;7413;464;17;639
15/03/2017;172;12238;5;1539;511;112;199;41;0;14817;927;17;1213;;15/03/2017;57;6011;2;749;270;57;85;21;0;7252;458;7;616;;15/03/2017;115;6227;3;790;241;55;114;20;0;7565;469;17;668
16/03/2017;192;12158;7;1554;524;91;148;39;0;14713;919;17;1252;;16/03/2017;68;5977;4;797;269;44;74;18;0;7251;456;7;604;;16/03/2017;124;6181;3;757;255;47;74;21;0;7462;462;17;671
17/03/2017;169;12671;3;1538;506;81;142;32;0;15142;943;17;1242;;17/03/2017;61;6222;1;786;254;42;71;20;0;7457;470;8;643;;17/03/2017;108;6449;2;752;252;39;71;12;0;7685;472;17;674
18/03/2017;290;12613;26;905;144;42;63;26;0;14109;832;17;1063;;18/03/2017;114;6193;15;480;68;18;34;16;0;6938;415;15;526;;18/03/2017;176;6420;11;425;76;24;29;10;0;7171;416;17;560
19/03/2017;318;11922;38;610;51;40;44;17;0;13040;769;18;1198;;19/03/2017;106;5899;18;330;28;20;33;12;0;6446;397;16;622;;19/03/2017;212;6023;20;280;23;20;11;5;0;6594;372;18;643
20/03/2017;175;11638;6;1334;492;80;119;30;0;13874;873;17;1180;;20/03/2017;50;5746;2;675;250;39;66;21;0;6849;436;7;626;;20/03/2017;125;5892;4;659;242;41;53;9;0;7025;436;17;660
21/03/2017;156;11663;7;1648;533;96;141;38;0;14282;904;8;1163;;21/03/2017;41;5742;5;846;264;53;68;23;0;7042;450;7;600;;21/03/2017;115;5921;2;802;269;43;73;15;0;7240;454;18;603
22/03/2017;164;11764;6;1496;472;119;141;36;0;14198;887;17;1167;;22/03/2017;41;5805;2;766;241;69;70;17;0;7011;446;7;641;;22/03/2017;123;5959;4;730;231;50;71;19;0;7187;441;17;645
23/03/2017;143;11843;17;1532;461;97;150;32;0;14275;890;17;1149;;23/03/2017;35;5831;10;776;238;50;73;18;0;7031;443;7;610;;23/03/2017;108;6012;7;756;223;47;77;14;0;7244;447;18;639
24/03/2017;189;12617;12;1638;533;88;147;36;0;15260;939;17;1200;;24/03/2017;57;6140;4;828;264;46;75;18;0;7432;463;7;586;;24/03/2017;132;6477;8;810;269;42;72;18;0;7828;476;17;665
25/03/2017;431;12849;26;989;167;48;41;24;0;14575;870;16;1228;;25/03/2017;174;6342;9;508;81;22;19;11;0;7166;433;16;589;;25/03/2017;257;6507;17;481;86;26;22;13;0;7409;437;16;639
26/03/2017;400;12203;30;662;62;24;4;18;0;13403;794;17;1373;;26/03/2017;148;6061;25;381;38;15;1;8;0;6677;409;17;724;;26/03/2017;252;6142;5;281;24;9;3;10;0;6726;384;17;649
27/03/2017;148;11376;6;1435;570;87;127;37;0;13786;865;8;1146;;27/03/2017;40;5622;3;746;286;45;63;20;0;6825;434;7;631;;27/03/2017;108;5754;3;689;284;42;64;17;0;6961;432;18;617
28/03/2017;174;11922;8;1577;485;94;130;37;0;14427;909;7;1173;;28/03/2017;58;5910;4;793;237;49;66;24;0;7141;453;7;640;;28/03/2017;116;6012;4;784;248;45;64;13;0;7286;456;17;614
29/03/2017;159;12032;15;1519;538;86;125;36;0;14510;905;18;1167;;29/03/2017;37;5886;4;781;279;44;65;21;0;7117;448;7;628;;29/03/2017;122;6146;11;738;259;42;60;15;0;7393;456;18;684
30/03/2017;173;12264;9;1617;596;104;154;42;0;14959;927;17;1195;;30/03/2017;65;5994;4;825;301;58;71;22;0;7340;459;7;594;;30/03/2017;108;6270;5;792;295;46;83;20;0;7619;468;18;658
31/03/2017;174;12807;35;1563;573;96;153;55;0;15456;948;17;1212;;31/03/2017;72;6255;17;788;288;47;81;31;0;7579;472;8;579;;31/03/2017;102;6552;18;775;285;49;72;24;0;7877;476;17;669
01/04/2017;520;12645;33;1052;150;50;29;22;0;14501;857;18;1171;;01/04/2017;238;6267;22;569;69;19;16;14;0;7214;430;18;634;;01/04/2017;282;6378;11;483;81;31;13;8;0;7287;427;17;551
02/04/2017;248;11692;24;541;57;23;4;13;0;12602;751;18;1226;;02/04/2017;79;5747;14;295;33;12;2;7;0;6189;381;18;600;;02/04/2017;169;5945;10;246;24;11;2;6;0;6413;370;18;626
03/04/2017;175;11444;9;1424;518;89;151;39;0;13849;873;17;1205;;03/04/2017;67;5636;4;748;273;44;75;20;0;6867;436;7;603;;03/04/2017;108;5808;5;676;245;45;76;19;0;6982;437;17;658
04/04/2017;179;12122;3;1611;509;94;171;43;0;14732;928;17;1191;;04/04/2017;64;5936;0;820;255;52;84;25;0;7236;462;7;596;;04/04/2017;115;6186;3;791;254;42;87;18;0;7496;467;17;636
05/04/2017;144;12161;5;1555;484;115;143;41;0;14648;917;18;1201;;05/04/2017;33;6024;4;803;234;57;72;23;0;7250;458;7;624;;05/04/2017;111;6137;1;752;250;58;71;18;0;7398;459;18;666
06/04/2017;134;12463;19;1627;556;131;169;46;0;15145;940;17;1206;;06/04/2017;43;6118;6;839;275;68;72;20;0;7441;468;7;626;;06/04/2017;91;6345;13;788;281;63;97;26;0;7704;472;17;660
07/04/2017;156;12951;35;1685;618;103;184;42;0;15774;968;17;1201;;07/04/2017;47;6285;4;860;300;46;95;20;0;7657;477;8;579;;07/04/2017;109;6666;31;825;318;57;89;22;0;8117;491;18;654
08/04/2017;483;13040;13;978;199;47;45;16;0;14821;874;17;1114;;08/04/2017;228;6399;6;506;106;25;25;9;0;7304;437;17;543;;08/04/2017;255;6641;7;472;93;22;20;7;0;7517;437;18;586
09/04/2017;579;13048;52;743;96;48;24;14;0;14604;858;17;1329;;09/04/2017;270;6437;46;422;70;30;20;14;0;7309;439;17;753;;09/04/2017;309;6611;6;321;26;18;4;0;0;7295;419;19;639
10/04/2017;170;12131;30;1638;647;116;171;42;0;14945;939;17;1242;;10/04/2017;65;5919;21;865;340;62;81;24;0;7377;468;18;608;;10/04/2017;105;6212;9;773;307;54;90;18;0;7568;471;17;685
11/04/2017;166;12371;8;1782;603;121;156;35;0;15242;964;17;1253;;11/04/2017;53;6060;2;907;320;54;79;16;0;7491;479;7;605;;11/04/2017;113;6311;6;875;283;67;77;19;0;7751;485;17;668
12/04/2017;198;12794;3;1658;532;136;166;34;0;15521;958;17;1261;;12/04/2017;68;6152;0;878;280;75;83;19;0;7555;470;7;620;;12/04/2017;130;6642;3;780;252;61;83;15;0;7966;487;17;707
13/04/2017;189;13577;34;1711;576;137;177;29;0;16430;1010;17;1316;;13/04/2017;66;6472;5;838;279;70;84;16;0;7830;488;7;619;;13/04/2017;123;7105;29;873;297;67;93;13;0;8600;522;17;742
14/04/2017;278;13101;23;1554;393;96;111;25;0;15581;949;17;1259;;14/04/2017;90;6412;12;816;194;46;57;13;0;7640;471;17;556;;14/04/2017;188;6689;11;738;199;50;54;12;0;7941;478;17;703
15/04/2017;314;11338;10;815;121;20;21;16;0;12655;748;11;918;;15/04/2017;120;5632;6;434;62;10;11;8;0;6283;382;10;508;;15/04/2017;194;5706;4;381;59;10;10;8;0;6372;365;18;470
16/04/2017;314;10454;39;477;44;14;5;6;0;11353;653;12;1074;;16/04/2017;149;5116;33;280;31;7;2;5;0;5623;333;17;526;;16/04/2017;165;5338;6;197;13;7;3;1;0;5730;319;12;636
17/04/2017;437;13670;36;911;128;83;18;5;0;15288;918;17;1437;;17/04/2017;198;7119;20;559;71;45;11;2;0;8025;499;17;836;;17/04/2017;239;6551;16;352;57;38;7;3;0;7263;419;18;617
18/04/2017;132;12344;7;1626;459;96;134;15;0;14813;928;17;1231;;18/04/2017;41;6270;4;857;248;48;66;7;0;7541;482;17;622;;18/04/2017;91;6074;3;769;211;48;68;8;0;7272;447;18;636
19/04/2017;134;11742;9;1573;554;141;160;30;0;14343;907;17;1198;;19/04/2017;37;5804;4;813;294;66;84;14;0;7116;452;7;617;;19/04/2017;97;5938;5;760;260;75;76;16;0;7227;454;17;656
20/04/2017;148;12073;27;1683;571;128;177;39;0;14846;923;17;1187;;20/04/2017;51;5902;7;885;291;61;82;21;0;7300;460;7;623;;20/04/2017;97;6171;20;798;280;67;95;18;0;7546;463;18;669
21/04/2017;177;12956;12;1696;577;128;172;39;0;15757;960;17;1289;;21/04/2017;59;6295;5;887;301;66;89;21;0;7723;477;7;603;;21/04/2017;118;6661;7;809;276;62;83;18;0;8034;483;17;695
22/04/2017;460;12499;18;1027;163;40;27;18;0;14252;853;16;1088;;22/04/2017;156;6000;10;549;83;17;13;11;0;6839;414;10;501;;22/04/2017;304;6499;8;478;80;23;14;7;0;7413;438;16;612
23/04/2017;330;11874;43;734;66;39;6;20;0;13112;772;18;1198;;23/04/2017;127;5764;26;413;41;16;4;12;0;6403;384;18;619;;23/04/2017;203;6110;17;321;25;23;2;8;0;6709;388;16;637
24/04/2017;361;11667;42;1305;396;53;77;31;0;13932;860;18;1130;;24/04/2017;158;5751;25;694;215;29;39;10;0;6921;437;10;514;;24/04/2017;203;5916;17;611;181;24;38;21;0;7011;422;18;652
25/04/2017;394;11633;20;812;95;31;13;13;0;13011;786;18;1265;;25/04/2017;215;5947;14;452;47;13;6;9;0;6703;419;18;669;;25/04/2017;179;5686;6;360;48;18;7;4;0;6308;367;18;596
26/04/2017;126;11907;5;1452;532;86;147;35;0;14290;893;7;1162;;26/04/2017;30;5915;3;759;273;42;83;15;0;7120;450;7;667;;26/04/2017;96;5992;2;693;259;44;64;20;0;7170;444;17;561
27/04/2017;121;12451;13;1503;502;111;153;48;0;14902;925;17;1189;;27/04/2017;36;6126;5;780;258;56;79;23;0;7363;461;7;610;;27/04/2017;85;6325;8;723;244;55;74;25;0;7539;464;18;662
28/04/2017;152;12883;12;1736;540;116;179;38;0;15656;960;17;1259;;28/04/2017;46;6240;6;892;270;62;93;21;0;7630;473;7;566;;28/04/2017;106;6643;6;844;270;54;86;17;0;8026;488;17;704
29/04/2017;372;12322;27;1075;182;39;33;21;0;14071;831;16;1072;;29/04/2017;166;5996;16;556;83;15;17;11;0;6860;411;10;496;;29/04/2017;206;6326;11;519;99;24;16;10;0;7211;420;16;587
30/04/2017;586;12403;33;737;97;41;7;10;0;13914;818;18;1236;;30/04/2017;247;6173;23;439;54;19;3;4;0;6962;421;16;627;;30/04/2017;339;6230;10;298;43;22;4;6;0;6952;397;19;640
01/05/2017;354;11463;24;689;64;23;11;11;0;12639;766;12;1064;;01/05/2017;171;5806;13;407;32;10;5;7;0;6451;404;15;631;;01/05/2017;183;5657;11;282;32;13;6;4;0;6188;362;12;572
02/05/2017;130;12160;8;1655;500;105;178;50;0;14786;930;7;1181;;02/05/2017;45;5959;5;858;256;56;86;22;0;7287;463;7;624;;02/05/2017;85;6201;3;797;244;49;92;28;0;7499;467;17;630
03/05/2017;132;12005;5;1498;467;114;170;38;0;14429;898;17;1217;;03/05/2017;33;5886;4;792;235;63;88;15;0;7116;446;7;640;;03/05/2017;99;6119;1;706;232;51;82;23;0;7313;451;17;701